When you browse on this site, cookies collect data to enhance your experience and personalize the content and advertising you see.
Visit our Privacy Policy to learn more. By continuing to use the site, you agree to this use of cookies and data.
  • In Romania
  • List of Countries
  • For 7 days
  • Water Temperature
  • Satellite Maps
  • Weather Map
  • Weather Widgets
  • user-avatar
    Login

    Hourly Weather Durnikovo

    Today, 18 November, Sunday

    Time Temperature Precipitation Wind Pressure Humidity
    00:00 +1°C° 0.4 mm 3 mps 747 mmHg 96%
    01:00 +1°C° 0.4 mm 3 mps 747 mmHg 96%
    02:00 +2°C° 0 mm 2 mps 746 mmHg 96%
    03:00 +2°C° 0.3 mm 2 mps 746 mmHg 97%
    04:00 +2°C° 0.3 mm 2 mps 746 mmHg 97%
    05:00 +2°C° 0.3 mm 2 mps 746 mmHg 97%
    06:00 +2°C° 0.1 mm 2 mps 746 mmHg 97%
    07:00 +1°C° 0.1 mm 2 mps 746 mmHg 97%
    08:00 +1°C° 0.1 mm 2 mps 747 mmHg 97%
    09:00 +2°C° 0.1 mm 2 mps 747 mmHg 96%
    10:00 +2°C° 0.1 mm 2 mps 748 mmHg 96%
    11:00 +2°C° 0.1 mm 2 mps 748 mmHg 95%
    12:00 +2°C° 0.1 mm 2 mps 749 mmHg 96%
    13:00 +2°C° 0.1 mm 2 mps 749 mmHg 96%
    14:00 +2°C° 0.1 mm 2 mps 749 mmHg 96%
    15:00 +2°C° 0 mm 2 mps 750 mmHg 96%
    16:00 +2°C° 0 mm 2 mps 751 mmHg 96%
    17:00 +2°C° 0 mm 2 mps 751 mmHg 96%
    18:00 +2°C° 0.1 mm 2 mps 752 mmHg 96%
    19:00 +2°C° 0.1 mm 2 mps 752 mmHg 96%
    20:00 +2°C° 0.1 mm 2 mps 753 mmHg 96%
    21:00 +1°C° 0.1 mm 3 mps 753 mmHg 95%
    22:00 0°C° 0.1 mm 3 mps 754 mmHg 94%
    23:00 0°C° 0.1 mm 3 mps 754 mmHg 93%

    Tomorrow, 19 November, Monday

    Time Temperature Precipitation Wind Pressure Humidity
    00:00 0°C° 0 mm 3 mps 755 mmHg 93%
    01:00 0°C° 0 mm 3 mps 755 mmHg 92%
    02:00 -1°C° 0 mm 3 mps 756 mmHg 91%
    03:00 -1°C° 0 mm 3 mps 756 mmHg 90%
    04:00 -1°C° 0 mm 3 mps 756 mmHg 90%
    05:00 -2°C° 0 mm 3 mps 757 mmHg 89%
    06:00 -2°C° 0 mm 3 mps 757 mmHg 89%
    07:00 -2°C° 0 mm 3 mps 757 mmHg 89%
    08:00 -2°C° 0 mm 3 mps 758 mmHg 89%
    09:00 -2°C° 0 mm 3 mps 758 mmHg 88%
    10:00 -2°C° 0 mm 3 mps 759 mmHg 87%
    11:00 -2°C° 0 mm 3 mps 759 mmHg 86%
    12:00 -4°C° 0 mm 3 mps 759 mmHg 86%
    13:00 -4°C° 0 mm 3 mps 759 mmHg 85%
    14:00 -3°C° 0 mm 2 mps 759 mmHg 85%
    15:00 -3°C° 0 mm 2 mps 759 mmHg 86%
    16:00 -4°C° 0 mm 2 mps 760 mmHg 86%
    17:00 -4°C° 0 mm 2 mps 760 mmHg 87%
    18:00 -4°C° 0 mm 2 mps 760 mmHg 88%
    19:00 -5°C° 0 mm 2 mps 760 mmHg 89%
    20:00 -3°C° 0 mm 1 mps 760 mmHg 89%
    21:00 -3°C° 0 mm 1 mps 760 mmHg 89%
    22:00 -3°C° 0 mm 1 mps 760 mmHg 90%
    23:00 -4°C° 0 mm 1 mps 759 mmHg 90%

    Day after tomorrow, 20 November, Tuesday

    Time Temperature Precipitation Wind Pressure Humidity
    00:00 -4°C° 0 mm 1 mps 759 mmHg 89%
    01:00 -4°C° 0 mm 1 mps 759 mmHg 89%
    02:00 -4°C° 0 mm 1 mps 759 mmHg 89%
    03:00 -4°C° 0 mm 1 mps 759 mmHg 88%
    04:00 -4°C° 0 mm 1 mps 758 mmHg 88%
    05:00 -4°C° 0 mm 1 mps 758 mmHg 87%
    06:00 -4°C° 0 mm 1 mps 757 mmHg 87%
    07:00 -4°C° 0 mm 1 mps 757 mmHg 86%
    08:00 -4°C° 0 mm 1 mps 757 mmHg 86%
    09:00 -3°C° 0 mm 1 mps 757 mmHg 83%
    10:00 -4°C° 0 mm 2 mps 756 mmHg 79%
    11:00 -4°C° 0 mm 2 mps 756 mmHg 76%
    12:00 -4°C° 0 mm 2 mps 755 mmHg 77%
    13:00 -4°C° 0 mm 2 mps 755 mmHg 78%
    14:00 -4°C° 0 mm 2 mps 755 mmHg 79%
    15:00 -4°C° 0 mm 2 mps 754 mmHg 81%
    16:00 -4°C° 0 mm 2 mps 754 mmHg 83%
    17:00 -5°C° 0 mm 3 mps 754 mmHg 85%
    18:00 -6°C° 0 mm 3 mps 753 mmHg 85%
    19:00 -6°C° 0 mm 3 mps 753 mmHg 85%
    20:00 -6°C° 0 mm 3 mps 753 mmHg 85%
    21:00 -6°C° 0 mm 3 mps 753 mmHg 85%
    22:00 -5°C° 0 mm 3 mps 753 mmHg 86%
    23:00 -5°C° 0 mm 3 mps 753 mmHg 86%

    21 November, Wednesday

    Time Temperature Precipitation Wind Pressure Humidity
    00:00 -5°C° 0 mm 3 mps 753 mmHg 87%
    01:00 -5°C° 0 mm 3 mps 753 mmHg 88%
    02:00 -4°C° 0 mm 3 mps 753 mmHg 89%
    03:00 -4°C° 0 mm 3 mps 753 mmHg 90%
    04:00 -4°C° 0 mm 3 mps 753 mmHg 91%
    05:00 -4°C° 0 mm 3 mps 753 mmHg 92%
    06:00 -4°C° 0 mm 3 mps 754 mmHg 92%
    07:00 -4°C° 0 mm 3 mps 754 mmHg 92%
    08:00 -4°C° 0 mm 3 mps 754 mmHg 93%
    09:00 -2°C° 0 mm 3 mps 755 mmHg 90%
    10:00 -2°C° 0 mm 3 mps 755 mmHg 88%
    11:00 -1°C° 0 mm 2 mps 755 mmHg 86%
    12:00 -2°C° 0 mm 2 mps 755 mmHg 87%
    13:00 -2°C° 0 mm 2 mps 755 mmHg 87%
    14:00 -2°C° 0 mm 2 mps 755 mmHg 88%
    15:00 -3°C° 0 mm 2 mps 755 mmHg 90%
    16:00 -3°C° 0 mm 2 mps 755 mmHg 92%
    17:00 -4°C° 0 mm 2 mps 755 mmHg 94%
    18:00 -4°C° 0 mm 2 mps 755 mmHg 94%
    19:00 -4°C° 0 mm 2 mps 755 mmHg 94%
    20:00 -5°C° 0 mm 2 mps 754 mmHg 94%
    21:00 -6°C° 0 mm 3 mps 754 mmHg 92%
    22:00 -6°C° 0 mm 3 mps 753 mmHg 91%
    23:00 -6°C° 0 mm 3 mps 753 mmHg 90%

    22 November, Thursday

    Time Temperature Precipitation Wind Pressure Humidity
    00:00 -5°C° 0 mm 4 mps 752 mmHg 89%
    01:00 -5°C° 0 mm 4 mps 752 mmHg 87%
    02:00 -5°C° 0 mm 4 mps 752 mmHg 86%
    03:00 -6°C° 0 mm 5 mps 751 mmHg 86%
    04:00 -5°C° 0 mm 5 mps 751 mmHg 86%
    05:00 -4°C° 0 mm 5 mps 750 mmHg 86%
    06:00 -4°C° 0 mm 5 mps 750 mmHg 85%
    07:00 -4°C° 0 mm 5 mps 750 mmHg 84%
    08:00 -4°C° 0 mm 5 mps 750 mmHg 84%
    09:00 -4°C° 0 mm 5 mps 750 mmHg 83%
    10:00 -3°C° 0 mm 4 mps 750 mmHg 83%
    11:00 -2°C° 0 mm 4 mps 750 mmHg 82%
    12:00 -2°C° 0 mm 4 mps 751 mmHg 83%
    13:00 -3°C° 0 mm 4 mps 751 mmHg 84%
    14:00 -2°C° 0 mm 3 mps 751 mmHg 86%
    15:00 -2°C° 0 mm 3 mps 751 mmHg 88%
    16:00 -4°C° 0 mm 3 mps 751 mmHg 90%
    17:00 -4°C° 0 mm 3 mps 752 mmHg 92%
    18:00 -4°C° 0 mm 3 mps 752 mmHg 93%
    19:00 -3°C° 0 mm 2 mps 752 mmHg 93%
    20:00 -3°C° 0 mm 2 mps 752 mmHg 94%
    21:00 -3°C° 0 mm 2 mps 752 mmHg 93%
    22:00 -3°C° 0 mm 2 mps 753 mmHg 93%
    23:00 -3°C° 0 mm 2 mps 753 mmHg 93%

    23 November, Friday

    Time Temperature Precipitation Wind Pressure Humidity
    00:00 -3°C° 0 mm 2 mps 753 mmHg 93%
    01:00 -3°C° 0 mm 2 mps 753 mmHg 94%
    02:00 -3°C° 0 mm 2 mps 753 mmHg 95%
    03:00 -4°C° 0 mm 3 mps 753 mmHg 95%
    04:00 -4°C° 0 mm 3 mps 753 mmHg 95%
    05:00 -4°C° 0 mm 3 mps 753 mmHg 95%
    06:00 -2°C° 0 mm 3 mps 752 mmHg 94%
    07:00 -2°C° 0 mm 3 mps 752 mmHg 93%
    08:00 -1°C° 0 mm 3 mps 752 mmHg 92%
    09:00 -2°C° 0 mm 4 mps 751 mmHg 91%
    10:00 -2°C° 0 mm 4 mps 751 mmHg 90%
    11:00 -2°C° 0 mm 4 mps 751 mmHg 89%
    12:00 -2°C° 0 mm 5 mps 750 mmHg 88%
    13:00 -2°C° 0 mm 5 mps 749 mmHg 87%
    14:00 -3°C° 0 mm 6 mps 749 mmHg 85%
    15:00 -3°C° 0 mm 6 mps 748 mmHg 84%
    16:00 -4°C° 0 mm 6 mps 747 mmHg 83%
    17:00 -4°C° 0 mm 6 mps 747 mmHg 82%
    18:00 -4°C° 0 mm 6 mps 746 mmHg 82%
    19:00 -4°C° 0 mm 6 mps 746 mmHg 82%
    20:00 -3°C° 0 mm 6 mps 745 mmHg 82%
    21:00 -3°C° 0.1 mm 6 mps 745 mmHg 81%
    22:00 -3°C° 0.1 mm 6 mps 745 mmHg 81%
    23:00 -2°C° 0.1 mm 5 mps 744 mmHg 81%
    Show more